Tenerife, El Salvador

3:20 PM WEST en Octubre 16, 2018 (GMT +0100)
Tenerife

Tiempo Historia de GCXO - Febrero, 2018

Change the Weather History Date:

Martes, Febrero 13, 2018

  Actual Average Record
Temperature  
Temperatura media 54 ° F -  
Temperatura máxima 59 ° F 60 ° F 73 ° F (2007)
Temperatura mínima 50 ° F 50 ° F 48 ° F (2008)
Degree Days  
Grados día de calefacción 10    
Growing Degree Days 4 (Base 50)    
Moisture  
Punto de rocío 50 ° F    
Average Humidity 88    
Maximum Humidity 100    
Minimum Humidity 67    
Precipitación  
Precipitación 0.00 pul - - ()
Presión al nivel del mar  
Presión al nivel del mar 30.19 pul    
Viento  
Velocidad del viento 3 mph ()    
Velocidad máxima del viento 12 mph    
Max Gust Speed -    
Visibilidad 6.6 Millas    
Eventos      
Averages and records for this station are not official NWS values.
T = Trace of Precipitation, MM = Missing Value Source: Averaged Metar Reports

Daily Weather History Graph

Daily Weather History Graph

Search for Another Location

Airport or City:

Astronomía

Feb. 13, 2018 Salida Puesta
Hora real 7:45 AM WET 6:54 PM WET
Crepúsculo civil 7:21 AM WET 7:18 PM WET
Crepúsculo náutico 6:53 AM WET 7:46 PM WET
Crepúsculo astronómico 6:25 AM WET 8:13 PM WET
Luna 6:04 AM WET (2/13) 4:59 PM WET (2/13)
Horas de luz 11h 57m
Horas de luz
11h 09m
Creciente menguante, 5% of the Moon is Illuminated
Feb 13
Creciente menguante
Feb 15
Nueva
Feb 23
Cuarto creciente
Mar 2
Luna llena
Mar 9
Cuarto menguante

Hourly Weather History & Observations

Hora (WET) Temp. Punto de rocío Humedad Presión Visibilidad Wind Dir Velocidad del viento Velocidad de ráfagas Precip Eventos Condiciones
12:00 AM 52 ° F 48 ° F 83% 30.23 pul 17 mi OSO 2.3 mph - -  
12:00 AM 51.8 ° F 48.2 ° F 88% 30.21 pul 6.2 mi Variable 2.3 mph - N/A   Nublado
12:30 AM 51.8 ° F 48.2 ° F 88% 30.21 pul 6.2 mi Sin viento Sin viento - N/A   Nublado
1:00 AM 51.8 ° F 48.2 ° F 88% 30.21 pul 6.2 mi Sin viento Sin viento - N/A   Nublado
2:00 AM 51.8 ° F 48.2 ° F 88% 30.18 pul 6.2 mi Sin viento Sin viento - N/A   Nublado
2:30 AM 51.8 ° F 48.2 ° F 88% 30.18 pul 6.2 mi Variable 1.2 mph - N/A   Nublado
3:00 AM 51.8 ° F 46.4 ° F 82% 30.18 pul 6.2 mi Variable 1.2 mph - N/A   Nublado
3:30 AM 51.8 ° F 46.4 ° F 82% 30.18 pul 6.2 mi Sin viento Sin viento - N/A   Nublado
4:00 AM 51.8 ° F 46.4 ° F 82% 30.18 pul 6.2 mi SSE 1.2 mph - N/A   Nublado
4:30 AM 51.8 ° F 48.2 ° F 88% 30.18 pul 6.2 mi Variable 2.3 mph - N/A   Nubes dispersas
5:00 AM 51.8 ° F 50.0 ° F 94% 30.18 pul 6.2 mi SSE 3.5 mph - N/A   Nubes dispersas
5:30 AM 51.8 ° F 50.0 ° F 94% 30.18 pul 6.2 mi Variable 2.3 mph - N/A   Muy nublado
6:00 AM 51 ° F 49 ° F 90% 30.18 pul 8 mi SE 2.3 mph - -   Parcialmente nublado
6:00 AM 51.8 ° F 48.2 ° F 88% 30.18 pul 6.2 mi SE 2.3 mph - N/A   Nubes dispersas
6:30 AM 51.8 ° F 50.0 ° F 94% 30.18 pul 6.2 mi Variable 2.3 mph - N/A   Muy nublado
7:30 AM 51.8 ° F 50.0 ° F 94% 30.18 pul 6.2 mi Variable 2.3 mph - N/A   Muy nublado
8:00 AM 51.8 ° F 50.0 ° F 94% 30.21 pul 6.2 mi Variable 2.3 mph - N/A   Muy nublado
8:30 AM 51.8 ° F 50.0 ° F 94% 30.21 pul 6.2 mi SE 4.6 mph - N/A   Muy nublado
9:00 AM 51.8 ° F 50.0 ° F 94% 30.21 pul 6.2 mi Este 3.5 mph - N/A   Muy nublado
9:30 AM 53.6 ° F 51.8 ° F 94% 30.21 pul 6.2 mi Variable 2.3 mph - N/A   Nubes dispersas
10:00 AM 53.6 ° F 50.0 ° F 88% 30.21 pul 6.2 mi ESE 4.6 mph - N/A   Nubes dispersas
10:30 AM 53.6 ° F 50.0 ° F 88% 30.24 pul 6.2 mi ESE 10.4 mph - N/A   Muy nublado
10:50 AM 53.6 ° F 50.0 ° F 88% 30.24 pul 6.2 mi ESE 9.2 mph - N/A   Muy nublado
11:00 AM 53.6 ° F 50.0 ° F 88% 30.24 pul 6.2 mi ESE 9.2 mph - N/A   Muy nublado
11:30 AM 55.4 ° F 48.2 ° F 77% 30.24 pul 6.2 mi ESE 11.5 mph - N/A   Muy nublado
12:00 PM 54 ° F 50 ° F 82% 30.22 pul 15 mi Este 8.1 mph - -   Muy nublado
12:00 PM 55.4 ° F 50.0 ° F 82% 30.21 pul 6.2 mi ESE 8.1 mph - N/A   Muy nublado
12:30 PM 53.6 ° F 50.0 ° F 88% 30.21 pul 6.2 mi ESE 9.2 mph - N/A   Muy nublado
1:00 PM 55.4 ° F 50.0 ° F 82% 30.21 pul 6.2 mi ESE 8.1 mph - N/A   Muy nublado
1:30 PM 55.4 ° F 50.0 ° F 82% 30.18 pul 6.2 mi ESE 8.1 mph - N/A   Nubes dispersas
2:00 PM 57.2 ° F 51.8 ° F 82% 30.18 pul 6.2 mi Este 6.9 mph - N/A   Nubes dispersas
2:30 PM 55.4 ° F 50.0 ° F 82% 30.18 pul 6.2 mi Este 4.6 mph - N/A   Nubes dispersas
3:00 PM 59 ° F 51 ° F 67% 30.15 pul 16 mi SE 3.5 mph - -   Nubes dispersas
4:00 PM 55.4 ° F 51.8 ° F 88% 30.15 pul 6.2 mi ESE 3.5 mph - N/A   Nubes dispersas
4:30 PM 55.4 ° F 51.8 ° F 88% 30.15 pul 6.2 mi SE 4.6 mph - N/A   Muy nublado
5:00 PM 55.4 ° F 51.8 ° F 88% 30.15 pul 6.2 mi ESE 4.6 mph - N/A   Nubes dispersas
6:00 PM 54 ° F 51 ° F 88% 30.17 pul 9 mi ESE 2.3 mph - -   Parcialmente nublado
6:00 PM 53.6 ° F 51.8 ° F 94% 30.18 pul 6.2 mi Variable 2.3 mph - N/A   Nubes dispersas
6:30 PM 53.6 ° F 51.8 ° F 94% 30.18 pul 6.2 mi ESE 1.2 mph - N/A   Nubes dispersas
7:00 PM 53.6 ° F 51.8 ° F 94% 30.18 pul 5.6 mi Variable 1.2 mph - N/A   Nubes dispersas
7:30 PM 51.8 ° F 50.0 ° F 94% 30.18 pul 4.3 mi Sin viento Sin viento - N/A   Parcialmente nublado
8:00 PM 51.8 ° F 50.0 ° F 94% 30.18 pul 4.3 mi Sin viento Sin viento - N/A   Parcialmente nublado
8:30 PM 50.0 ° F 50.0 ° F 100% 30.18 pul 4.3 mi SSE 2.3 mph - N/A   Parcialmente nublado
9:00 PM 51 ° F 50 ° F 93% 30.21 pul 2 mi Sur 2.3 mph - -  
9:00 PM 50.0 ° F 50.0 ° F 100% 30.21 pul 5.0 mi Sur 2.3 mph - N/A   Parcialmente nublado
9:17 PM 50.0 ° F 50.0 ° F 100% 30.21 pul 3.1 mi Sin viento Sin viento - N/A   Parcialmente nublado
10:00 PM 51.8 ° F 50.0 ° F 94% 30.21 pul 5.0 mi Oeste 3.5 mph - N/A   Desconocido
10:30 PM 51.8 ° F 48.2 ° F 88% 30.21 pul 5.6 mi Oeste 3.5 mph - N/A   Desconocido
11:00 PM 51.8 ° F 46.4 ° F 82% 30.21 pul - Oeste 3.5 mph - N/A   Despejado
11:30 PM 51.8 ° F 44.6 ° F 76% 30.21 pul - Oeste 5.8 mph - N/A   Despejado